Lid_Strength_Index
7 7 6 6 5 4 2 2 2 1 1 1 2 2 2 2 2 3 3 3 4 4 4 3 3 2 3 2 2 2 3 2 4 3 5 5 7 8 9 9 10 10 9
7 7 7 7 7 6 6 5 3 3 2 1 1 1 2 1 1 2 2 2 3 3 4 4 4 3 3 2 1 3 2 2 3 4 5 7 7 8 8 9 11 11 11
8 8 8 8 8 8 7 7 6 5 5 3 2 2 1 1 1 1 1 2 2 2 2 3 3 3 3 3 3 3 3 3 2 3 6 9 10 11 12 12 12 12 12
10 10 10 9 8 7 7 7 7 6 6 5 5 4 2 2 1 1 1 1 2 2 2 2 2 2 3 3 3 3 3 3 4 4 8 11 12 14 13 13 14 14 14
11 11 11 10 9 9 9 8 7 7 7 6 6 4 3 3 2 2 2 1 2 2 2 2 2 4 8 5 3 3 3 4 5 6 13 15 15 16 13 13 13 15 15
13 12 11 10 10 10 9 9 9 8 8 7 7 6 5 4 5 6 5 2 2 2 3 2 2 9 8 9 8 7 5 4 7 7 8 10 14 14 14 14 14 15 14
13 12 12 11 11 11 10 10 10 9 8 8 8 7 6 5 6 6 7 3 2 2 2 3 3 4 8 5 8 9 9 7 6 7 8 9 11 13 13 14 14 14 14
14 13 12 13 13 12 12 11 11 10 10 9 9 8 7 7 7 6 6 3 2 2 2 2 2 3 7 5 6 8 6 7 7 8 7 8 8 10 9 11 12 15 16
15 14 15 15 15 15 14 14 13 12 12 11 10 10 9 9 8 7 6 4 3 3 2 1 2 3 8 9 7 10 11 13 12 11 10 10 10 9 11 13 14 14 17
17 17 16 16 16 16 15 14 13 12 12 11 11 11 11 10 9 8 7 6 5 4 3 4 10 5 9 10 7 10 13 13 14 15 14 12 12 11 12 10 13 13 17
18 18 17 17 16 15 14 14 14 14 12 11 11 10 10 10 10 9 8 7 6 5 4 4 7 9 9 10 8 10 10 14 13 14 15 15 15 15 13 14 12 12 15
19 19 19 19 18 17 17 16 15 13 13 13 12 11 10 9 9 8 8 7 7 7 6 5 6 9 10 10 10 10 11 13 14 14 15 15 15 15 15 15 15 15 15
20 21 20 19 18 17 18 17 16 15 14 13 13 11 10 9 9 8 8 7 7 8 7 5 7 10 10 10 10 11 14 15 14 15 15 15 15 15 17 16 16 17 16
22 21 20 20 20 18 17 16 16 16 15 14 13 13 11 10 9 9 8 8 9 8 8 7 8 9 9 10 12 13 13 13 14 14 14 15 16 17 17 17 17 17 17
22 22 22 22 22 21 19 19 18 17 16 16 15 14 14 13 11 9 8 9 9 8 9 11 11 11 12 13 13 14 14 14 14 14 15 17 17 17 17 16 16 17 17
24 24 23 22 22 22 21 21 17 16 15 13 12 13 13 11 11 10 9 8 7 7 10 10 10 11 11 12 13 14 14 14 14 15 15 16 17 17 17 17 17 16 17
25 23 23 23 22 22 22 21 22 19 16 14 13 11 10 9 9 9 8 8 8 8 9 9 10 10 11 11 12 13 14 14 14 15 15 15 16 16 17 17 17 16 17
25 24 24 23 23 23 22 21 21 21 21 19 15 13 10 9 8 8 7 8 10 9 9 9 9 10 11 11 12 13 14 14 15 15 15 15 16 16 17 17 16 17 18
25 24 23 23 22 22 21 21 21 20 19 18 15 12 10 8 7 7 7 8 9 10 9 9 10 10 11 12 12 13 14 14 15 15 15 15 15 16 17 16 16 17 18
25 23 23 22 22 22 22 22 22 21 20 19 17 14 10 9 9 9 8 8 9 9 9 10 10 11 12 12 13 13 14 15 15 15 15 15 15 15 16 16 17 18 19
24 23 23 22 23 23 23 23 23 22 21 20 18 16 14 9 9 9 9 9 9 9 9 10 11 11 12 12 13 14 14 15 15 15 15 15 15 16 15 16 17 18 19
23 24 23 24 23 23 24 23 23 24 23 22 21 19 15 15 10 10 9 10 10 10 10 11 11 11 11 13 13 14 14 15 15 15 15 15 15 16 15 17 18 18 20
24 24 24 24 24 24 25 24 24 24 24 24 23 22 21 20 19 15 11 11 10 11 11 11 11 12 12 12 13 13 14 14 14 14 15 16 15 16 17 17 18 20 21
25 25 25 25 25 25 26 26 25 25 26 26 25 24 24 23 21 20 19 15 11 12 12 11 11 11 13 13 13 13 13 13 13 14 14 15 16 17 18 18 20 21 21
26 26 27 26 27 27 27 27 26 27 27 27 26 26 25 24 24 23 22 20 19 13 12 13 13 13 13 13 14 14 14 14 15 15 14 15 17 18 19 20 21 22 22
28 29 28 28 28 28 28 28 28 28 28 27 28 27 26 26 25 25 24 23 23 20 20 14 13 13 13 14 14 14 15 15 15 15 15 17 18 19 20 22 23 23 24